Weather in Belgorodskoye

Russia / Jewish Autonomous Oblast     48°35′44″N   133°43′33″E
temp.,
°C
wind,
m/s
gust,
m/s
humid.,
%
clouds,
%
prec.,
mm/h
press.,
hPa
HPBL,
m
19 january, wed
wed1901:00−28w1110082 0.0 10299
04:00−29w2210099 0.0 10299
07:00−29w1210076 0.0 102910
10:00−28wsw1110075 0.0 102915
13:00−21wsw129342 0.0 1029101
16:00−21wsw11958 0.0 102812
19:00−26sw2210034 0.0 102810
22:00−29wsw1110069 0.0 10289
20 january, thu
thu2001:00−31w1110053 0.0 10299
04:00−32wnw1110078 0.0 10299
07:00−33nw1110036 0.0 10299
10:00−32nw1110034 0.0 103010
13:00−24w11925 0.0 103080
16:00−22wsw22925 0.0 103022
19:00−27ssw32995 0.0 103216
22:00−29sw2210017 0.0 103223
21 january, fri
fri2101:00−31wsw2210030 0.0 103315
04:00−32sw2210028 0.0 103312
07:00−33sw2210014 0.0 103313
10:00−32sw2210018 0.0 103426
13:00−24sw22925 0.0 1033123
16:00−22ssw22935 0.0 103229
19:00−29s221005 0.0 10339
22:00−31ssw1110051 0.0 10329
22 january, sat
sat2201:00−33ese1110043 0.0 10329
04:00−34ne1110075 0.0 10329
07:00−35ene1110077 0.0 10339
10:00−34ne1110088 0.0 103312
13:00−25ssw009786 0.0 103293
16:00−24ssw11965 0.0 103110
19:00−30ssw111008 0.0 10319
22:00−32wsw1110027 0.0 10319
23 january, sun
sun2301:00−34wsw1110040 0.0 10309
04:00−35sw1110062 0.0 10309
07:00−35sw1110033 0.0 10309
10:00−34ssw1110060 0.0 103013
13:00−25sw129545 0.0 1029114
16:00−23sw22955 0.0 102835
19:00−28s221005 0.0 102810
22:00−31ssw2210052 0.0 10289